Spokane Fairchild, WA
on Sunday, February 17, 2013

Sunday
Previous Day Next Day
Daily Summary
 ActualAverage (KGEG)Record (KGEG)
Temperature
Mean Temperature °F 33°F  
Max Temperature 41°F 40°F 58°F (1930)
Min Temperature 28°F 26°F -5°F (1881)
Degree Days
Heating Degree Days 30 32  
Month to date heating degree days 558  
Since 1 July heating degree days 4491  
Cooling Degree Days 0 0  
Month to date cooling degree days 0  
Year to date cooling degree days 0  
Moisture
Dew Point 27°F   
Average Humidity 72    
Maximum Humidity 93    
Minimum Humidity 57    
Precipitation
Precipitation 0.00 in 0.05 in 0.71 in (1940)
Month to date precipitation 0.80  
Year to date precipitation 2.59  
Snow
Snow 0.00 in 0.30 in 7.60 in (1989)
Month to date snowfall 4.5  
Since 1 July snowfall 38.0  
Snow Depth in   
Wind
Wind Speed 11 mph   
Max Wind Speed 16 mph   
Max Gust Speed mph   
Visibility 10 miles   
Events Snow   

Key: T is trace of precipitation, MM is missing value
Source: NWS Daily Summary
Time(PST)TemperatureDew PointHumidity Pressure Visibility Wind DirectionWind SpeedGust SpeedPrecipitationEvents Conditions
12:58 AM 32.5°F 28.2°F 84% 29.99 in 10.0 miles SW 10.4 mph - N/A   Mostly Cloudy
1:58 AM 32.2°F 27.5°F 83% 30.01 in 10.0 miles SW 10.4 mph - N/A   Overcast
2:47 AM 32.0°F 28.4°F 87% 29.96 in 10.0 miles WSW 15.0 mph - N/A   Overcast
2:58 AM 31.6°F 28.0°F 87% 30.02 in 6.0 miles West 15.0 mph - 0.00 in Snow Light Snow
3:03 AM 32.0°F 28.4°F 87% 29.96 in 3.0 miles West 15.0 mph - N/A Snow Light Snow
3:13 AM 32.0°F 28.4°F 87% 29.96 in 3.0 miles West 6.9 mph - N/A Snow Light Snow
3:30 AM 32.0°F 30.2°F 93% 29.95 in 10.0 miles SSW 8.1 mph - N/A   Overcast
3:41 AM 32.0°F 30.2°F 93% 29.96 in 10.0 miles SSW 4.6 mph - N/A Snow Light Snow
3:46 AM 33.8°F 28.4°F 81% 29.95 in 10.0 miles South 4.6 mph - N/A Snow Light Snow
3:55 AM 32.0°F 28.4°F 87% 29.96 in 10.0 miles SW 8.1 mph - N/A   Overcast
3:58 AM 32.5°F 28.2°F 84% 30.02 in 10.0 miles SSW 8.1 mph - 0.00 in   Overcast
4:58 AM 30.9°F 26.8°F 85% 30.04 in 10.0 miles SSW 6.9 mph - N/A   Overcast
5:58 AM 29.3°F 25.3°F 85% 30.05 in 10.0 miles SW 8.1 mph - N/A   Overcast
6:42 AM 28.4°F 24.8°F 86% 29.98 in 10.0 miles SW 8.1 mph - N/A   Clear
6:53 AM 28.4°F 24.8°F 86% 29.98 in 10.0 miles SW 8.1 mph - N/A   Clear
6:58 AM 28.4°F 24.8°F 86% 30.06 in 10.0 miles SW 9.2 mph - 0.00 in   Clear
7:58 AM 30.7°F 25.0°F 79% 30.07 in 10.0 miles SW 6.9 mph - N/A   Clear
8:26 AM 32.0°F 24.8°F 75% 30.00 in 10.0 miles WSW 12.7 mph - N/A   Clear
8:36 AM 33.8°F 24.8°F 70% 30.01 in 10.0 miles WSW 13.8 mph - N/A   Clear
8:58 AM 34.7°F 26.2°F 71% 30.07 in 10.0 miles WSW 13.8 mph - 0.00 in   Clear
9:00 AM 35.6°F 26.6°F 70% 30.01 in 10.0 miles WSW 15.0 mph - N/A   Clear
9:06 AM 35.6°F 26.6°F 70% 30.01 in 10.0 miles WSW 13.8 mph - N/A   Clear
9:09 AM 35.6°F 26.6°F 70% 30.01 in 10.0 miles WSW 15.0 mph - N/A   Clear
9:20 AM 35.6°F 26.6°F 70% 30.01 in 10.0 miles West 12.7 mph - N/A   Clear
9:50 AM 37.4°F 26.6°F 65% 30.02 in 10.0 miles West 16.1 mph - N/A   Clear
9:58 AM 37.6°F 26.8°F 65% 30.09 in 10.0 miles West 11.5 mph - 0.00 in   Clear
10:08 AM 37.4°F 26.6°F 65% 30.02 in 10.0 miles West 15.0 mph - N/A   Clear
10:45 AM 39.2°F 26.6°F 61% 30.03 in 10.0 miles WSW 15.0 mph - N/A   Clear
10:52 AM 39.2°F 26.6°F 61% 30.03 in 10.0 miles West 15.0 mph - N/A   Clear
10:58 AM 39.6°F 27.0°F 61% 30.09 in 10.0 miles West 13.8 mph - 0.00 in   Clear
11:02 AM 41.0°F 26.6°F 57% 30.03 in 10.0 miles West 13.8 mph - N/A   Clear
11:12 AM 39.2°F 26.6°F 61% 30.04 in 10.0 miles WSW 13.8 mph - N/A   Clear
11:17 AM 41.0°F 26.6°F 57% 30.04 in 10.0 miles WSW 15.0 mph - N/A   Clear
11:19 AM 41.0°F 26.6°F 57% 30.04 in 10.0 miles West 13.8 mph - N/A   Clear
11:24 AM 41.0°F 28.4°F 61% 30.04 in 10.0 miles West 15.0 mph - N/A   Clear
11:27 AM 41.0°F 26.6°F 57% 30.04 in 10.0 miles West 16.1 mph - N/A   Clear
11:58 AM 41.0°F 27.1°F 58% 30.10 in 10.0 miles West 15.0 mph - 0.00 in   Clear
12:34 PM 41.0°F 28.4°F 61% 30.03 in 10.0 miles SW 11.5 mph - N/A   Scattered Clouds
12:50 PM 41.0°F 28.4°F 61% 30.03 in 10.0 miles WSW 13.8 mph - N/A   Mostly Cloudy
12:58 PM 40.8°F 28.9°F 63% 30.09 in 10.0 miles WSW 12.7 mph - 0.00 in   Mostly Cloudy
12:59 PM 41.0°F 30.2°F 65% 30.03 in 10.0 miles WSW 12.7 mph - N/A   Light Drizzle
1:11 PM 41.0°F 28.4°F 61% 30.03 in 10.0 miles SW 10.4 mph - N/A   Mostly Cloudy
1:44 PM 41.0°F 28.4°F 61% 30.03 in 10.0 miles WSW 11.5 mph - N/A   Mostly Cloudy
1:51 PM 41.0°F 28.4°F 61% 30.03 in 10.0 miles West 12.7 mph - N/A   Scattered Clouds
1:58 PM 40.5°F 28.6°F 63% 30.09 in 10.0 miles WSW 11.5 mph - 0.00 in   Scattered Clouds
2:17 PM 41.0°F 28.4°F 61% 30.02 in 10.0 miles West 15.0 mph - N/A   Scattered Clouds
2:31 PM 41.0°F 28.4°F 61% 30.03 in 10.0 miles West 12.7 mph - N/A   Mostly Cloudy
2:58 PM 40.8°F 28.4°F 61% 30.09 in 10.0 miles West 12.7 mph - 0.00 in   Overcast
3:58 PM 39.6°F 27.5°F 62% 30.09 in 10.0 miles WSW 15.0 mph - N/A   Clear
4:58 PM 37.9°F 26.8°F 64% 30.09 in 10.0 miles WSW 9.2 mph - N/A   Mostly Cloudy
5:58 PM 32.4°F 25.3°F 75% 30.12 in 10.0 miles West 9.2 mph - N/A   Clear
6:12 PM 32.0°F 24.8°F 75% 30.04 in 10.0 miles SW 9.2 mph - N/A   Clear
6:27 PM 32.0°F 24.8°F 75% 30.04 in 10.0 miles WSW 5.8 mph - N/A   Clear
6:58 PM 32.0°F 24.8°F 75% 30.12 in 10.0 miles WSW 6.9 mph - 0.00 in   Partly Cloudy
7:39 PM 32.0°F 23.0°F 69% 30.05 in 10.0 miles SSW 2.3 mph - N/A   Scattered Clouds
7:58 PM 33.1°F 25.0°F 72% 30.13 in 10.0 miles NW 3.5 mph - 0.00 in   Mostly Cloudy
7:59 PM 32.0°F 24.8°F 75% 30.05 in 10.0 miles NW 4.6 mph - N/A   Overcast
8:52 PM 32.0°F 24.8°F 75% 30.06 in 10.0 miles SW 9.2 mph - N/A   Mostly Cloudy
8:58 PM 32.9°F 25.2°F 73% 30.13 in 10.0 miles SW 9.2 mph - 0.00 in   Mostly Cloudy
9:20 PM 32.0°F 24.8°F 75% 30.06 in 10.0 miles SW 8.1 mph - N/A   Partly Cloudy
9:58 PM 32.0°F 25.2°F 76% 30.13 in 10.0 miles WSW 8.1 mph - 0.00 in   Clear
10:10 PM 32.0°F 24.8°F 75% 30.06 in 10.0 miles WSW 5.8 mph - N/A   Clear
10:33 PM 32.0°F 24.8°F 75% 30.06 in 10.0 miles SSW 6.9 mph - N/A   Clear
10:37 PM 32.0°F 24.8°F 75% 30.06 in 10.0 miles SW 6.9 mph - N/A   Clear
10:58 PM 32.7°F 25.0°F 73% 30.13 in 10.0 miles SSW 5.8 mph - 0.00 in   Clear
11:01 PM 32.0°F 24.8°F 75% 30.06 in 10.0 miles SW 5.8 mph - N/A   Clear
11:35 PM 32.0°F 24.8°F 75% 30.05 in 10.0 miles South 3.5 mph - N/A   Clear
11:44 PM 30.2°F 24.8°F 80% 30.05 in 10.0 miles SSW 3.5 mph - N/A   Clear
11:58 PM 29.3°F 24.4°F 82% 30.12 in 10.0 miles SW 3.5 mph - 0.00 in   Clear
Moon Phase
Feb. 17 Feb. 17 Feb. 25 Mar. 04 Mar. 11
Sunrise:06:52 AM (PST) Moon Rise:10:14 AM (PST)2/17
Sunset:05:17 PM (PST) Moon Set:12:50 AM (PST)2/17

Copyright © 2014 The Weather Underground, Inc.